EDT,Max TemperatureF,Mean TemperatureF,Min TemperatureF,Max Dew PointF,MeanDew PointF,Min DewpointF,Max Humidity, Mean Humidity, Min Humidity, Max Sea Level PressureIn, Mean Sea Level PressureIn, Min Sea Level PressureIn, Max VisibilityMiles, Mean VisibilityMiles, Min VisibilityMiles, Max Wind SpeedMPH, Mean Wind SpeedMPH, Max Gust SpeedMPH,PrecipitationIn, CloudCover, Events, WindDirDegrees
2013-3-1,35,32,30,32,29,27,93,86,80,29.93,29.90,29.87,10,9,2,12,5,,0.00,8,Rain-Snow,255
2013-3-2,33,30,24,30,24,18,93,79,60,29.98,29.90,29.86,10,8,3,13,6,,0.00,8,Rain-Snow,295
2013-3-3,30,26,23,19,15,12,80,64,55,30.04,29.99,29.95,10,9,4,15,6,,0.00,8,Rain-Snow,288
2013-3-4,46,34,23,27,17,12,74,51,27,30.15,30.07,30.01,10,10,10,9,5,,0.00,3,,266
2013-3-5,46,40,32,45,35,25,100,87,65,30.02,29.83,29.61,10,8,4,21,5,31,0.00,6,Rain-Snow,73
2013-3-6,30,28,26,28,24,19,93,84,69,30.19,29.97,29.72,10,8,1,21,10,33,0.00,8,Rain-Snow,252
2013-3-7,33,30,28,25,24,21,86,78,64,30.32,30.26,30.17,10,10,9,8,5,,0.00,8,Rain,269
2013-3-8,44,35,26,27,24,21,93,70,42,30.36,30.32,30.27,10,10,10,13,4,,0.00,4,Rain,289
2013-3-9,64,42,21,34,24,7,100,57,12,30.31,30.24,30.18,10,10,5,9,2,,0.00,0,Rain,61
2013-3-10,68,54,41,34,30,27,57,40,26,30.19,30.13,30.06,10,10,10,15,9,,0.00,0,Rain,91
2013-3-11,57,52,48,50,42,30,100,69,38,30.09,29.94,29.82,10,9,4,13,7,,0.00,5,Rain,80
2013-3-12,48,39,30,48,36,28,100,85,53,30.05,29.95,29.80,10,8,2,13,5,,0.00,6,Rain,268
2013-3-13,39,32,24,32,22,12,100,70,41,30.23,30.10,30.02,10,9,1,17,5,,0.00,5,Rain-Snow,279
2013-3-14,39,32,24,21,14,10,74,50,36,30.33,30.25,30.20,10,10,10,13,7,16,0.00,3,Rain,284
2013-3-15,60,42,24,39,29,19,87,64,38,30.22,30.06,29.91,10,10,10,14,2,,0.00,2,,281
2013-3-16,69,53,37,48,43,37,100,65,40,29.91,29.84,29.76,10,9,0,21,5,33,0.00,3,Fog-Rain,255
2013-3-17,64,55,46,52,47,43,94,75,52,29.99,29.92,29.86,10,10,8,13,2,,0.00,6,Rain,74
2013-3-18,57,50,42,48,42,37,100,81,58,29.98,29.90,29.80,10,9,4,12,8,,0.00,4,Rain,85
2013-3-19,53,43,33,46,29,7,100,59,20,30.09,29.98,29.82,10,10,4,20,6,29,0.00,3,Rain,265
2013-3-20,48,36,23,28,18,9,86,52,24,30.10,29.99,29.83,10,10,3,18,4,23,0.00,3,Rain-Snow,252
2013-3-21,33,27,21,18,9,7,63,46,32,29.98,29.89,29.85,10,10,10,20,9,22,0.00,3,,283
2013-3-22,44,30,15,23,13,9,86,54,26,30.05,30.00,29.97,10,10,10,10,2,,0.00,4,Rain,266
2013-3-23,50,42,35,37,31,19,87,67,52,30.02,29.96,29.83,10,10,10,8,1,,0.00,6,,133
2013-3-24,51,45,39,43,38,32,100,78,57,29.85,29.62,29.42,10,9,5,16,9,,0.00,6,Rain,83
2013-3-25,39,34,28,39,27,23,100,81,69,29.91,29.68,29.50,10,8,0,23,12,34,0.00,8,Fog-Rain-Snow,254
2013-3-26,33,30,28,28,26,25,93,82,70,30.20,30.04,29.91,10,9,2,13,7,,0.00,8,Rain-Snow,252
2013-3-27,39,32,26,27,22,19,86,68,48,30.28,30.24,30.18,10,10,6,13,6,,0.00,7,Rain-Snow,265
2013-3-28,48,34,19,27,22,18,100,68,34,30.31,30.27,30.23,10,10,10,13,2,,0.00,2,,292
2013-3-29,51,37,23,36,26,19,93,70,28,30.32,30.29,30.25,10,10,7,16,2,,0.00,3,Rain,277
2013-3-30,59,47,35,41,36,34,93,73,42,30.24,30.15,30.02,10,10,10,9,3,,0.00,4,Rain,56
2013-3-31,57,50,44,50,47,39,100,91,72,30.02,29.90,29.85,10,8,2,20,4,23,0.00,8,Rain,250